Location: Bratsk-Energetik
(56.3300°N, 101.7600°E)
Time: 12:12:38
(UTC+08:00)

ISS - Visible Passes

Search period start: 24 October 2017 00:00
Search period end: 03 November 2017 00:00
Orbit: 400 x 408 km, 51.6° (Epoch: 24 October)

Date Brightness Start Highest point End Pass type
(mag) Time Alt. Az. Time Alt. Az. Time Alt. Az.
31 Oct -0.9 07:29:43 10° S 07:31:41 15° SSE 07:33:40 10° ESE visible
01 Nov -0.7 06:38:42 10° SSE 06:39:32 11° SE 06:40:22 10° SE visible
02 Nov -1.5 07:20:21 10° SSW 07:22:56 22° SSE 07:25:33 10° ESE visible
